DW8004 Weather Reports


time (UTC)temp
C
wind
direction
speed
KPH
gust
KPH
rain 1hr
cm
rain 24hr
cm
rain mn
cm
humidity
%
barometer
mb
20260508181507 7 319 0.0 0.0 0.00 0.00 0.00 57 1010.7
20260508180052 7 324 0.0 0.0 0.00 0.00 0.00 59 1010.5
20260508174534 7 293 0.0 0.0 0.00 0.00 0.00 59 1010.7
20260508173030 7 294 0.0 0.0 0.00 0.00 0.00 55 1010.6
20260508171608 7 5 0.0 0.0 0.00 0.00 0.00 57 1010.6
20260508164602 7 328 0.0 0.0 0.00 0.00 0.00 54 1010.8
20260508163050 7 355 0.0 0.0 0.00 0.00 0.00 54 1010.6
20260508161538 7 295 0.0 0.0 0.00 0.00 0.00 51 1010.6
20260508160019 7 207 0.0 0.0 0.00 0.00 0.00 52 1010.6
20260508154532 8 259 0.0 0.0 0.00 0.00 0.00 51 1010.5
20260508153018 7 234 0.0 0.0 0.00 0.00 0.00 52 1010.5
20260508151504 7 249 0.0 0.0 0.00 0.00 0.00 53 1010.5
20260508150033 7 257 0.0 0.0 0.00 0.00 0.00 52 1010.4
20260508144505 7 326 0.0 0.0 0.00 0.00 0.00 53 1010.4
20260508143053 6 242 0.0 0.0 0.00 0.00 0.00 56 1010.4
20260508141554 6 234 0.0 0.0 0.00 0.00 0.00 58 1010.5
20260508140019 6 274 0.0 0.0 0.00 0.00 0.00 63 1010.5
20260508134503 5 341 0.0 0.0 0.00 0.00 0.00 66 1010.8
20260508133056 5 269 0.0 0.0 0.00 0.00 0.00 68 1010.9
20260508131601 5 329 0.0 0.0 0.00 0.00 0.00 73 1011.0
20260508124559 3 229 0.0 0.0 0.00 0.00 0.00 81 1011.1
20260508123048 2 225 0.0 0.0 0.00 0.00 0.00 83 1011.2
20260508121541 2 246 0.0 0.0 0.00 0.00 0.00 85 1011.2
20260508120108 1 253 0.0 0.0 0.00 0.00 0.00 88 1011.3
20260508114601 0 188 0.0 0.0 0.00 0.00 0.00 89 1011.3
20260508113044 0 190 0.0 0.0 0.00 0.00 0.00 90 1011.2
20260508111528 0 190 0.0 0.0 0.00 0.00 0.00 90 1011.1
20260508110053 0 190 0.0 0.0 0.00 0.00 0.00 91 1011.0
20260508104554 0 190 0.0 0.0 0.00 0.00 0.00 91 1010.7
20260508103034 -1 190 0.0 0.0 0.00 0.00 0.00 92 1010.7
20260508101605 -1 190 0.0 0.0 0.00 0.00 0.00 92 1010.6
20260508100052 -1 190 0.0 0.0 0.00 0.00 0.00 93 1010.3
20260508094549 -1 190 0.0 0.0 0.00 0.00 0.00 92 1010.1
20260508093050 -1 190 0.0 0.0 0.00 0.00 0.00 91 1010.1
20260508091537 -1 190 0.0 0.0 0.00 0.00 0.00 91 1009.8
20260508090041 -1 190 0.0 0.0 0.00 0.00 0.00 91 1009.7
20260508084539 -1 190 0.0 0.0 0.00 0.00 0.00 92 1009.7
20260508083051 -1 190 0.0 0.0 0.00 0.00 0.00 91 1009.6
20260508081544 -1 190 0.0 0.0 0.00 0.00 0.00 91 1009.3
20260508080009 -1 190 0.0 0.0 0.00 0.00 0.00 91 1009.4
20260508074553 -1 190 0.0 0.0 0.00 0.00 0.00 91 1009.3
20260508073010 -1 190 0.0 0.0 0.00 0.00 0.00 91 1009.2
20260508071613 -1 190 0.0 0.0 0.00 0.00 0.00 91 1009.1
20260508070028 -1 190 0.0 0.0 0.00 0.00 0.00 90 1008.9
20260508064542 -1 190 0.0 0.0 0.00 0.00 0.00 90 1008.9
20260508063002 0 190 0.0 0.0 0.00 0.00 0.00 90 1009.0
20260508061557 0 190 0.0 0.0 0.00 0.00 0.00 90 1009.0
20260508060113 0 190 0.0 0.0 0.00 0.00 0.00 89 1009.0
20260508054605 0 190 0.0 0.0 0.00 0.00 0.00 89 1009.1
20260508053014 0 190 0.0 0.0 0.00 0.00 0.00 89 1009.2
20260508051606 0 190 0.0 0.0 0.00 0.00 0.00 88 1009.2
20260508050104 0 190 0.0 0.0 0.00 0.00 0.00 88 1009.2
20260508044542 0 190 0.0 0.0 0.00 0.00 0.00 88 1009.3
20260508043106 0 190 0.0 0.0 0.00 0.00 0.00 88 1009.3
20260508041557 0 190 0.0 0.0 0.00 0.00 0.00 88 1009.4
20260508040020 0 190 0.0 0.0 0.00 0.00 0.00 87 1009.4
20260508034555 0 190 0.0 0.0 0.00 0.00 0.00 87 1009.4
20260508033036 1 190 0.0 0.0 0.00 0.00 0.00 86 1009.3
20260508031549 1 190 0.0 0.0 0.00 0.00 0.00 86 1009.4
20260508030004 1 190 0.0 0.0 0.00 0.00 0.00 85 1009.2
20260508024603 1 190 0.0 0.0 0.00 0.00 0.00 83 1009.2
20260508023042 2 190 0.0 0.0 0.00 0.00 0.00 82 1009.2
20260508021528 2 190 0.0 0.0 0.00 0.00 0.00 80 1009.1
20260508020104 3 190 0.0 0.0 0.00 0.00 0.00 77 1009.1
20260508014551 3 192 0.0 0.0 0.00 0.00 0.00 75 1008.9
20260508013053 4 192 0.0 0.0 0.00 0.00 0.00 72 1008.6
20260508011501 5 192 0.0 0.0 0.00 0.00 0.00 72 1008.3
20260508004550 6 192 0.0 0.0 0.00 0.00 0.00 65 1007.9
20260508003032 6 194 0.0 0.0 0.00 0.00 0.00 63 1007.7
20260508001553 7 194 0.0 0.0 0.00 0.00 0.00 58 1007.6
20260508000106 7 224 0.0 0.0 0.00 0.03 0.00 57 1007.5
20260507234556 7 277 0.0 0.0 0.00 0.03 0.00 55 1007.3
20260507233100 8 229 0.0 0.0 0.00 0.03 0.00 54 1007.1
20260507231555 8 246 0.0 0.0 0.00 0.03 0.00 52 1007.0
20260507230050 8 296 0.0 0.0 0.00 0.03 0.00 51 1006.8
20260507224553 8 279 0.0 0.0 0.00 0.15 0.00 52 1006.8
20260507223048 8 264 0.0 0.0 0.00 0.15 0.00 51 1006.8
20260507221546 9 198 0.0 0.0 0.00 0.15 0.00 51 1006.7
20260507220039 10 292 0.0 0.0 0.00 0.15 0.00 50 1006.7
20260507214527 10 249 0.0 0.0 0.00 0.15 0.00 52 1006.7
20260507213036 9 221 0.0 0.0 0.00 0.15 0.00 53 1006.7
20260507211542 10 118 0.0 0.0 0.00 0.15 0.00 52 1006.8
20260507210012 9 165 0.0 0.0 0.00 0.30 0.00 53 1006.5
20260507204502 9 281 0.0 0.0 0.00 0.30 0.00 53 1006.7
20260507203108 9 222 0.0 0.0 0.00 0.30 0.00 54 1006.5
20260507201557 8 5 0.0 0.0 0.00 0.30 0.00 57 1006.6
20260507200051 8 244 0.0 0.0 0.00 0.56 0.00 56 1006.7
20260507194531 9 260 0.0 0.0 0.00 0.56 0.00 56 1006.8
20260507193014 9 259 0.0 0.0 0.00 0.56 0.00 55 1007.0
20260507191530 9 312 0.0 0.0 0.00 0.56 0.00 53 1007.0
20260507190015 10 200 0.0 0.0 0.00 0.97 0.00 53 1007.0
20260507184556 10 254 0.0 0.0 0.00 0.97 0.00 51 1007.3
20260507183035 10 234 0.0 0.0 0.00 0.97 0.00 52 1007.3